Location: Haliburton Scout Reserve
(45.0900°N, 78.3200°W)
Time: 02:14:07
(UTC-04:00)

DIWATA 2B (PO-101) - Pass Details

Date: 21 May 2022
Orbit: 585 x 597 km, 98.0° (Epoch: 27 June)

Event Time Altitude Azimuth Distance (km) Brightness Sun altitude
Exits shadow 03:10:06 45° 187° (S) 801 ? -19.2°
Maximum altitude 03:11:16 73° 257° (WSW) 619 ? -19.1°
Drops below altitude 10° 03:15:26 10° 343° (NNW) 1,922 ? -18.7°
Sets 03:17:37 0° 345° (NNW) 2,829 ? -18.5°
